Location: R�serve Fauniques des Laurentides
(47.3100°N, 71.1900°W)
Time: 09:14:59
(UTC-04:00)

Amateur Radio Satellites - All Passes

Search period start: 05 May 2015 08:44
Search period end: 06 May 2015 08:44
Location: R�serve Fauniques des Laurentides, 47.3100°N, 71.1900°W

Satellite Date Start Highest point End Downlink Frequencies (MHz)
Time Altitude Azimuth
BRITE-PL 05 May 08:51:14 08:56:35 63° 100° (E) 09:02:13 437.365/2234.400
AIST 2 05 May 08:52:38 08:56:37 37° 43° (NE) 09:00:34 435.215
COMPASS 1 05 May 08:53:43 08:56:38 19° 90° (E) 08:59:39 437.405
Cosmos 2491 05 May 08:54:39 09:03:32 78° 78° (ENE) 09:12:24 435.465 / 435.565
DOVE 4 05 May 09:07:03 09:12:02 41° 96° (E) 09:17:05 437.250
TIGRISAT 05 May 09:08:49 09:11:52 18° 61° (ENE) 09:15:05 435.000
ISS 05 May 09:13:20 09:16:34 69° 152° (SSE) 09:19:49 145.825
HO-68 05 May 09:14:05 09:21:03 50° 99° (E) 09:27:59 435.675
UNISAT 6 05 May 09:17:33 09:21:02 22° 63° (ENE) 09:24:41 437.425
POLYITAN 1 05 May 09:21:59 09:23:17 11° 58° (ENE) 09:24:46 437.675
GOMX 1 05 May 09:22:04 09:27:27 78° 102° (ESE) 09:32:59 467.674
CUTE-I 05 May 09:25:48 09:27:41 12° 307° (NW) 09:29:19 437.470
AAUSAT CUBESAT 2 05 May 09:26:33 09:30:23 34° 96° (E) 09:34:12 437.432
DELFI C3 05 May 09:28:36 09:30:26 13° 87° (E) 09:32:26 145.870
QB50P1 05 May 09:33:10 09:35:21 14° 60° (ENE) 09:37:43 145.935-145.965
SEEDS 05 May 09:35:27 09:39:39 61° 100° (E) 09:43:48 437.485
BEESAT 3 05 May 09:46:43 09:50:00 23° 245° (WSW) 09:53:10 437.485
BUGSAT 1 05 May 09:48:50 09:50:46 14° 61° (ENE) 09:52:52 437.445
PCSat 05 May 09:56:45 09:58:10 11° 345° (NNW) 09:59:29 145.827
ANTELSAT 05 May 09:58:49 10:03:18 49° 71° (ENE) 10:07:54 437.575/2403.000
YUBILEINY 05 May 09:59:13 10:07:59 73° 95° (E) 10:16:45 435.215
QB50P2 05 May 10:01:42 10:05:14 26° 66° (ENE) 10:08:50 145.880/145.840
CANX-2 05 May 10:02:20 10:06:31 53° 288° (WNW) 10:10:39 2200.000
BEESAT 2 05 May 10:02:24 10:05:28 20° 246° (WSW) 10:08:24 435.950
UKube-1 05 May 10:06:15 10:08:23 14° 88° (E) 10:10:43 .
CINEMA 3 05 May 10:09:29 10:14:35 80° 102° (ESE) 10:19:36 145.822/145.860
CUTE 1.7 + AOD 2 05 May 10:09:49 10:13:58 49° 288° (WNW) 10:18:03 437.475
NANOSAT C BR1 05 May 10:11:48 10:15:32 31° 68° (ENE) 10:19:21 145.865
SO-50 05 May 10:14:35 10:19:15 57° 313° (NW) 10:24:04 436.795
FUNcube-1 05 May 10:17:20 10:21:31 34° 95° (E) 10:25:38 145.935
POPSAT HIP 1 05 May 10:19:52 10:23:47 38° 69° (ENE) 10:27:46 437.405
Oscar 11 05 May 10:21:08 10:25:27 63° 101° (E) 10:29:44 145.826/435.025
AIST 1 05 May 10:25:41 10:29:57 64° 78° (ENE) 10:34:13
COMPASS 1 05 May 10:28:35 10:32:36 45° 289° (WNW) 10:36:34 437.405
BRITE-PL 05 May 10:30:32 10:34:45 23° 297° (WNW) 10:39:01 437.365/2234.400
AIST 2 05 May 10:31:23 10:35:09 30° 243° (WSW) 10:38:48 435.215
CUBEBUG 2 05 May 10:33:15 10:38:03 75° 101° (E) 10:42:45 437.445
UWE-3 05 May 10:36:34 10:41:15 66° 101° (E) 10:45:51 435.000/436.395/437.385
DUCHIFAT 1 05 May 10:41:46 10:45:56 62° 73° (ENE) 10:50:09 145.980
TIGRISAT 05 May 10:43:33 10:48:09 66° 258° (WSW) 10:52:52 435.000
DOVE 4 05 May 10:45:00 10:49:40 32° 294° (WNW) 10:54:18 437.250
ZACube-1 05 May 10:47:02 10:51:38 68° 101° (E) 10:56:09 437.345
ISS 05 May 10:49:57 10:53:04 40° 351° (N) 10:56:11 145.825
HUMSAT D 05 May 10:50:40 10:54:40 36° 96° (E) 10:58:38 437.325/437.525
Cosmos 2491 05 May 10:52:36 10:59:37 26° 280° (W) 11:06:19 435.465 / 435.565
UNISAT 6 05 May 10:52:58 10:57:30 52° 261° (W) 11:02:08 437.425
RS-15 05 May 10:54:00 10:58:47 15° 97° (E) 11:04:27 29.354- 29.394
POLYITAN 1 05 May 10:54:17 10:58:33 87° 76° (ENE) 11:02:53 437.675
50 SAT 05 May 11:00:31 11:03:57 27° 94° (E) 11:07:23 437.505
GOMX 1 05 May 11:01:19 11:05:03 19° 299° (WNW) 11:08:42 467.674
DELFI C3 05 May 11:02:03 11:06:03 61° 286° (WNW) 11:10:00 145.870
CUBEBUG 1 05 May 11:02:03 11:04:20 14° 88° (E) 11:06:49 437.445
HO-68 05 May 11:02:06 11:08:40 39° 299° (WNW) 11:15:08 435.675
AAUSAT CUBESAT 2 05 May 11:02:27 11:05:53 25° 294° (WNW) 11:09:14 437.432
QB50P1 05 May 11:06:31 11:10:44 71° 258° (WSW) 11:15:00 145.935-145.965
SEEDS 05 May 11:12:24 11:15:02 16° 298° (WNW) 11:17:30 437.485
DX 1 05 May 11:13:09 11:17:32 69° 102° (ESE) 11:21:54 434.975-435.025
BUGSAT 1 05 May 11:21:45 11:25:46 69° 258° (WSW) 11:29:51 437.445
VELOX 1 05 May 11:27:04 11:31:23 47° 99° (E) 11:35:42 145.980
ESTCUBE 1 05 May 11:29:56 11:33:54 30° 95° (E) 11:37:53 437.505/2401.250
Cosmos 2504 05 May 11:30:22 11:37:43 32° 84° (E) 11:45:01 435.465 / 435.565
ANTELSAT 05 May 11:36:47 11:40:23 21° 269° (W) 11:43:57 437.575/2403.000
QB50P2 05 May 11:37:08 11:41:01 34° 264° (W) 11:44:56 145.880/145.840
UKube-1 05 May 11:40:43 11:45:03 68° 287° (WNW) 11:49:22 .
SPROUT 05 May 11:42:02 11:42:26 10° 85° (E) 11:43:05 437.525
NANOSAT C BR1 05 May 11:47:45 11:51:24 27° 266° (W) 11:55:04 145.865
CINEMA 3 05 May 11:47:57 11:51:12 17° 300° (WNW) 11:54:16 145.822/145.860
AISAT 05 May 11:49:13 11:53:44 81° 104° (ESE) 11:58:14 437.250
FUNcube-1 05 May 11:53:46 11:57:46 30° 293° (WNW) 12:01:40 145.935
POPSAT HIP 1 05 May 11:56:23 11:59:49 23° 268° (W) 12:03:12 437.405
SO-50 05 May 11:57:43 12:00:52 17° 336° (NNW) 12:03:59 436.795
YUBILEINY 05 May 11:58:11 12:05:46 30° 298° (WNW) 12:13:09 435.215
Oscar 11 05 May 11:58:27 12:01:12 16° 298° (WNW) 12:03:49 145.826/435.025
TISAT 1 05 May 12:03:59 12:06:03 14° 88° (E) 12:08:19 437.305
AIST 1 05 May 12:05:01 12:07:08 13° 275° (W) 12:09:03
CUBEBUG 2 05 May 12:11:11 12:14:13 17° 300° (WNW) 12:17:04 437.445
UWE-3 05 May 12:14:09 12:17:19 18° 299° (WNW) 12:20:18 435.000/436.395/437.385
Oscar 19 05 May 12:19:05 12:23:31 30° 64° (ENE) 12:28:03 437.125/150
DUCHIFAT 1 05 May 12:19:53 12:22:15 14° 272° (W) 12:24:27 145.980
ZACube-1 05 May 12:24:32 12:27:31 17° 299° (WNW) 12:30:19 437.345
VERMONT LUNAR 05 May 12:25:33 12:27:13 13° 159° (SSE) 12:28:56 437.305
ISS 05 May 12:26:41 12:29:49 42° 10° (N) 12:32:57 145.825
HUMSAT D 05 May 12:26:41 12:30:18 25° 294° (WNW) 12:33:47 437.325/437.525
POLYITAN 1 05 May 12:34:40 12:35:12 10° 275° (W) 12:35:29 437.675
50 SAT 05 May 12:35:13 12:38:44 29° 292° (WNW) 12:42:10 437.505
CUBEBUG 1 05 May 12:36:51 12:41:13 66° 287° (WNW) 12:45:35 437.445
DX 1 05 May 12:50:39 12:53:19 16° 300° (WNW) 12:55:51 434.975-435.025
AO-7 05 May 12:51:36 12:54:58 13° 35° (NE) 12:58:41 29.400- 29.500
HO-68 05 May 12:54:09 12:54:36 10° 321° (NW) 12:54:41 435.675
RS-15 05 May 12:58:23 13:08:59 64° 118° (ESE) 13:19:58 29.354- 29.394
VELOX 1 05 May 13:04:14 13:07:41 22° 297° (WNW) 13:11:02 145.980
ESTCUBE 1 05 May 13:06:46 13:10:47 32° 293° (WNW) 13:14:45 437.505/2401.250
PHONESAT 2.4 05 May 13:08:59 13:10:17 12° 155° (SSE) 13:11:39 2401.200-2431.200
Gurwin Techsat 1B 05 May 13:12:18 13:16:37 27° 63° (ENE) 13:21:04 435.225
SPROUT 05 May 13:14:52 13:19:15 89° 285° (WNW) 13:23:36 437.525
ITAMSAT 1 05 May 13:17:52 13:22:24 32° 65° (ENE) 13:27:00 435.822/435.867
Cosmos 2504 05 May 13:21:55 13:30:43 66° 284° (WNW) 13:39:08 435.465 / 435.565
PCSat 05 May 13:25:30 13:29:47 23° 36° (NE) 13:34:09 145.827
AISAT 05 May 13:27:23 13:29:46 14° 301° (WNW) 13:32:00 437.250
TISAT 1 05 May 13:38:06 13:42:21 66° 287° (WNW) 13:46:35 437.305
SO-50 05 May 13:42:43 13:43:26 10° 360° (N) 13:44:09 436.795
Oscar 19 05 May 13:57:49 14:02:45 42° 263° (W) 14:07:41 437.125/150
VERMONT LUNAR 05 May 14:01:13 14:03:59 24° 175° (S) 14:06:47 437.305
ISS 05 May 14:03:03 14:06:17 61° 210° (SSW) 14:09:30 145.825
ITUPSAT 1 05 May 14:05:49 14:10:18 39° 98° (E) 14:14:46 437.325
GONETS M04 05 May 14:25:51 14:32:47 28° 81° (E) 14:39:59
BEESAT 05 May 14:29:21 14:34:07 67° 102° (ESE) 14:38:50 436.000
HORYU 2 05 May 14:30:00 14:33:40 25° 65° (ENE) 14:37:25 437.375
SWISSCUBE 05 May 14:33:45 14:38:33 79° 105° (ESE) 14:43:18 437.505
JAS-2 05 May 14:35:14 14:41:50 35° 63° (ENE) 14:48:03 435.910
AO-7 05 May 14:38:10 14:45:46 44° 59° (ENE) 14:53:31 29.400- 29.500
KKS-1 05 May 14:41:22 14:44:29 19° 90° (E) 14:47:42 437.445
PHONESAT 2.4 05 May 14:44:51 14:47:48 24° 171° (S) 14:50:45 2401.200-2431.200
Gurwin Techsat 1B 05 May 14:51:14 14:56:22 50° 261° (W) 15:01:33 435.225
SPROUT 05 May 14:53:02 14:54:43 12° 301° (WNW) 14:56:13 437.525
ITAMSAT 1 05 May 14:57:01 15:01:51 38° 263° (W) 15:06:41 435.822/435.867
CUSAT 1 05 May 14:58:19 15:01:58 21° 81° (E) 15:06:31 437.405
PCSat 05 May 15:08:26 15:13:54 83° 239° (WSW) 15:19:20 145.827
DANDE 05 May 15:08:35 15:11:39 17° 79° (E) 15:15:30 436.750
STARS 05 May 15:08:57 15:12:25 22° 92° (E) 15:15:57 437.465
RS-15 05 May 15:11:17 15:21:54 51° 325° (NW) 15:32:51 29.354- 29.394
Cosmos 2504 05 May 15:20:41 15:26:07 17° 308° (NW) 15:31:00 435.465 / 435.565
SO-50 05 May 15:22:53 15:26:00 17° 24° (NNE) 15:29:13 436.795
VERMONT LUNAR 05 May 15:38:14 15:40:52 21° 191° (SSW) 15:43:29 437.305
ISS 05 May 15:41:17 15:42:06 11° 226° (SW) 15:42:49 145.825
ITUPSAT 1 05 May 15:44:00 15:48:04 28° 295° (WNW) 15:52:04 437.325
HORYU 2 05 May 16:05:54 16:10:09 40° 262° (W) 16:14:25 437.375
Cubesat XI-IV 05 May 16:07:06 16:07:42 10° 51° (NE) 16:08:33 437.490
BEESAT 05 May 16:08:16 16:11:31 18° 300° (WNW) 16:14:37 436.000
SWISSCUBE 05 May 16:12:59 16:15:51 16° 301° (WNW) 16:18:33 437.505
KKS-1 05 May 16:17:04 16:21:29 53° 289° (WNW) 16:25:51 437.445
JAS-2 05 May 16:19:00 16:26:38 60° 260° (W) 16:33:38 435.910
GONETS M04 05 May 16:20:06 16:28:54 73° 282° (WNW) 16:37:48
PHONESAT 2.4 05 May 16:22:30 16:25:28 25° 188° (S) 16:28:28 2401.200-2431.200
MOZHAYETS 4 05 May 16:27:43 16:30:53 19° 90° (E) 16:34:10
AO-7 05 May 16:30:29 16:38:31 52° 259° (W) 16:46:35 29.400- 29.500
CUSAT 1 05 May 16:38:52 16:43:47 64° 287° (WNW) 16:50:24 437.405
STARS 05 May 16:44:50 16:49:05 43° 291° (WNW) 16:53:17 437.465
DANDE 05 May 16:49:18 16:53:53 66° 286° (WNW) 17:00:10 436.750
PCSat 05 May 16:53:52 16:56:35 14° 255° (WSW) 16:59:02 145.827
SO-50 05 May 17:02:46 17:07:39 54° 46° (NE) 17:12:30 436.795
Cosmos 2499 05 May 17:08:51 17:17:10 52° 91° (E) 17:25:07 435.465 / 435.565
RS-15 05 May 17:27:52 17:37:35 32° 358° (N) 17:47:38 29.354- 29.394
CUTE-I 05 May 17:28:46 17:33:46 44° 68° (ENE) 17:38:49 437.470
Cubesat XI-IV 05 May 17:41:37 17:46:47 56° 70° (ENE) 17:52:01 437.490
PHONESAT 2.4 05 May 18:01:23 18:03:02 13° 204° (SSW) 18:04:36 2401.200-2431.200
HO-68 05 May 18:03:17 18:06:19 14° 44° (NE) 18:09:40 435.675
MOZHAYETS 4 05 May 18:04:01 18:08:30 53° 288° (WNW) 18:12:55
JAS-2 05 May 18:10:19 18:13:08 12° 280° (W) 18:15:21 435.910
YUBILEINY 05 May 18:13:22 18:13:44 10° 40° (NE) 18:14:40 435.215
STRAND 1 05 May 18:19:22 18:20:21 11° 84° (E) 18:21:40 437.568
GONETS M04 05 May 18:21:42 18:27:45 19° 308° (NW) 18:33:28
CUSAT 1 05 May 18:25:45 18:28:30 13° 314° (NW) 18:31:15 437.405
BRITE-PL 05 May 18:30:29 18:32:24 13° 57° (ENE) 18:34:32 437.365/2234.400
CUBESAT XI-V 05 May 18:34:48 18:38:53 31° 94° (E) 18:43:01 437.345
DANDE 05 May 18:36:41 18:39:05 12° 314° (NW) 18:41:27 436.750
SO-50 05 May 18:43:49 18:47:57 26° 245° (WSW) 18:51:58 436.795
GOMX 1 05 May 18:57:58 19:00:38 16° 59° (ENE) 19:03:34 467.674
Cosmos 2499 05 May 19:02:26 19:10:35 41° 291° (WNW) 19:18:13 435.465 / 435.565
M-CUBED/EXP-1 PRIME 05 May 19:07:33 19:10:54 28° 100° (E) 19:14:04 437.505
PRISM 05 May 19:09:00 19:12:45 34° 97° (E) 19:16:31 437.425
CUTE-I 05 May 19:09:26 19:14:03 29° 266° (W) 19:18:35 437.470
Cubesat XI-IV 05 May 19:23:08 19:27:20 22° 269° (W) 19:31:23 437.490
CANX-2 05 May 19:23:41 19:26:41 19° 64° (ENE) 19:29:49 2200.000
CUTE 1.7 + AOD 2 05 May 19:30:55 19:34:03 21° 64° (ENE) 19:37:17 437.475
AUBIESAT-1 05 May 19:38:54 19:42:43 55° 106° (ESE) 19:46:13 437.475
CINEMA 3 05 May 19:39:38 19:42:12 15° 59° (ENE) 19:45:00 145.822/145.860
O/OREOS (USA 219) 05 May 19:42:46 19:46:27 25° 104° (ESE) 19:50:12 437.305
RS-15 05 May 19:42:48 19:53:34 45° 30° (NNE) 20:04:52 29.354- 29.394
HO-68 05 May 19:45:43 19:52:36 52° 65° (ENE) 19:59:33 435.675
COMPASS 1 05 May 19:48:11 19:51:19 21° 65° (ENE) 19:54:32 437.405
STRAND 1 05 May 19:55:24 20:00:32 78° 102° (ESE) 20:05:40 437.568
CUBEBUG 2 05 May 20:00:46 20:02:49 13° 58° (ENE) 20:05:05 437.445
UWE-3 05 May 20:03:47 20:05:11 11° 57° (ENE) 20:06:48 435.000/436.395/437.385
YUBILEINY 05 May 20:05:38 20:13:49 43° 68° (ENE) 20:22:02 435.215
BRITE-PL 05 May 20:05:49 20:10:11 89° 263° (W) 20:14:55 437.365/2234.400
Cosmos 2491 05 May 20:07:10 20:12:19 18° 76° (ENE) 20:17:56 435.465 / 435.565
CUBESAT XI-V 05 May 20:12:11 20:16:21 33° 292° (WNW) 20:20:28 437.345
ZACube-1 05 May 20:13:17 20:14:35 11° 57° (ENE) 20:16:06 437.345
DOVE 4 05 May 20:15:52 20:20:17 53° 71° (ENE) 20:25:01 437.250
DELFI C3 05 May 20:19:33 20:21:38 14° 62° (ENE) 20:23:51 145.870
AAUSAT CUBESAT 2 05 May 20:20:20 20:24:11 36° 69° (ENE) 20:28:05 437.432
SEEDS 05 May 20:30:17 20:34:31 64° 74° (ENE) 20:38:46 437.485
GOMX 1 05 May 20:33:43 20:38:09 74° 257° (WSW) 20:42:59 467.674
DX 1 05 May 20:38:50 20:40:22 12° 58° (ENE) 20:42:05 434.975-435.025
M-CUBED/EXP-1 PRIME 05 May 20:42:25 20:45:45 26° 300° (WNW) 20:48:50 437.505
PRISM 05 May 20:44:43 20:48:05 24° 295° (WNW) 20:51:24 437.425
CANX-2 05 May 20:58:06 21:02:19 50° 261° (W) 21:06:32 2200.000
UKube-1 05 May 21:04:01 21:07:00 19° 62° (ENE) 21:10:06 .
CUTE 1.7 + AOD 2 05 May 21:05:32 21:09:42 46° 262° (W) 21:13:52 437.475
CINEMA 3 05 May 21:14:09 21:18:46 82° 258° (WSW) 21:23:37 145.822/145.860
AUBIESAT-1 05 May 21:14:43 21:17:05 15° 305° (NW) 21:19:15 437.475
FUNcube-1 05 May 21:15:56 21:20:07 39° 69° (ENE) 21:24:23 145.935
AISAT 05 May 21:16:06 21:18:23 14° 59° (ENE) 21:20:50 437.250
Oscar 11 05 May 21:18:41 21:23:02 72° 75° (ENE) 21:27:24 145.826/435.025
Cosmos 2504 05 May 21:20:22 21:23:27 13° 47° (NE) 21:26:53 435.465 / 435.565
O/OREOS (USA 219) 05 May 21:21:22 21:25:42 41° 303° (WNW) 21:30:01 437.305
COMPASS 1 05 May 21:22:41 21:26:45 44° 262° (W) 21:30:50 437.405
HO-68 05 May 21:34:00 21:40:36 37° 265° (W) 21:47:08 435.675
CUBEBUG 2 05 May 21:34:15 21:38:49 88° 75° (ENE) 21:43:34 437.445
STRAND 1 05 May 21:35:51 21:39:13 17° 302° (WNW) 21:42:25 437.568
UWE-3 05 May 21:36:26 21:40:57 77° 75° (ENE) 21:45:38 435.000/436.395/437.385
HUMSAT D 05 May 21:45:22 21:49:21 39° 70° (ENE) 21:53:25 437.325/437.525
ZACube-1 05 May 21:45:43 21:50:12 78° 75° (ENE) 21:54:48 437.345
50 SAT 05 May 21:48:48 21:52:08 26° 67° (ENE) 21:55:34 437.505
DELFI C3 05 May 21:52:15 21:56:19 66° 258° (WSW) 22:00:23 145.870
DOVE 4 05 May 21:55:07 21:58:29 19° 272° (W) 22:01:52 437.250
RS-15 05 May 21:55:37 22:07:09 79° 237° (WSW) 22:19:09 29.354- 29.394
AAUSAT CUBESAT 2 05 May 21:56:28 21:59:56 24° 268° (W) 22:03:20 437.432
Cosmos 2491 05 May 21:59:09 22:07:53 80° 96° (E) 22:16:44 435.465 / 435.565
CUBEBUG 1 05 May 22:01:19 22:04:16 19° 63° (ENE) 22:07:20 437.445
YUBILEINY 05 May 22:02:33 22:10:53 50° 271° (W) 22:19:03 435.215
SEEDS 05 May 22:08:28 22:10:49 14° 273° (W) 22:13:00 437.485
DX 1 05 May 22:11:40 22:16:00 88° 75° (ENE) 22:20:22 434.975-435.025
VELOX 1 05 May 22:27:38 22:31:58 62° 72° (ENE) 22:36:22 145.980
ESTCUBE 1 05 May 22:32:33 22:36:45 41° 70° (ENE) 22:41:00 437.505/2401.250
TIGRISAT 05 May 22:32:55 22:36:29 22° 91° (E) 22:40:06 435.000
UKube-1 05 May 22:38:36 22:42:48 52° 259° (W) 22:47:04 .
POLYITAN 1 05 May 22:38:39 22:40:14 12° 86° (E) 22:42:01 437.675
SPROUT 05 May 22:38:39 22:40:40 13° 60° (ENE) 22:42:51 437.525
UNISAT 6 05 May 22:42:13 22:46:10 27° 93° (E) 22:50:06 437.425
QB50P1 05 May 22:49:43 22:52:14 15° 89° (E) 22:54:53 145.935-145.965
AISAT 05 May 22:50:02 22:54:26 77° 257° (WSW) 22:58:54 437.250
FUNcube-1 05 May 22:52:50 22:56:35 25° 268° (W) 23:00:20 145.935
CINEMA 3 05 May 22:56:24 22:56:56 10° 278° (W) 22:57:11 145.822/145.860
Oscar 11 05 May 22:57:40 22:59:48 13° 273° (W) 23:01:43 145.826/435.025
AIST 1 05 May 22:58:44 23:02:29 31° 91° (E) 23:06:17
TISAT 1 05 May 22:59:22 23:01:59 17° 62° (ENE) 23:04:42 437.305
BUGSAT 1 05 May 23:02:05 23:04:17 14° 88° (E) 23:06:40 437.445
Cosmos 2504 05 May 23:11:31 23:19:13 58° 74° (ENE) 23:26:26 435.465 / 435.565
CUBEBUG 2 05 May 23:14:37 23:16:19 12° 276° (W) 23:17:47 437.445
UWE-3 05 May 23:15:54 23:18:10 13° 275° (W) 23:20:15 435.000/436.395/437.385
QB50P2 05 May 23:19:06 23:22:56 31° 95° (E) 23:26:47 145.880/145.840
HUMSAT D 05 May 23:21:46 23:25:16 23° 268° (W) 23:28:43 437.325/437.525
50 SAT 05 May 23:23:12 23:26:51 31° 265° (W) 23:30:29 437.505
ANTELSAT 05 May 23:24:18 23:28:59 70° 102° (ESE) 23:33:32 437.575/2403.000
ZACube-1 05 May 23:25:04 23:27:15 13° 275° (W) 23:29:12 437.345
NANOSAT C BR1 05 May 23:28:54 23:32:54 37° 97° (E) 23:36:55 145.865
CUBEBUG 1 05 May 23:36:04 23:40:18 53° 260° (W) 23:44:34 437.445
POPSAT HIP 1 05 May 23:37:22 23:41:32 45° 98° (E) 23:45:42 437.405
BEESAT 3 05 May 23:42:03 23:45:33 29° 117° (ESE) 23:49:09 437.485
ITUPSAT 1 05 May 23:42:42 23:43:14 10° 55° (NE) 23:44:01 437.325
DX 1 05 May 23:52:21 23:53:00 10° 275° (W) 23:53:22 434.975-435.025
BEESAT 2 05 May 23:58:11 00:01:54 34° 119° (ESE) 00:05:42 435.950
Cosmos 2491 05 May 23:58:39 00:05:56 27° 301° (WNW) 00:13:02 435.465 / 435.565
DUCHIFAT 1 05 May 23:59:00 00:03:19 76° 103° (ESE) 00:07:36 145.980
BEESAT 06 May 00:03:32 00:06:20 16° 59° (ENE) 00:09:19 436.000
VELOX 1 06 May 00:06:23 00:09:01 15° 272° (W) 00:11:32 145.980
SWISSCUBE 06 May 00:07:33 00:10:45 19° 61° (ENE) 00:14:05 437.505
TIGRISAT 06 May 00:09:01 00:13:31 46° 290° (WNW) 00:17:53 435.000
RS-15 06 May 00:09:35 00:18:04 23° 258° (WSW) 00:26:09 29.354- 29.394
ESTCUBE 1 06 May 00:10:09 00:13:49 23° 268° (W) 00:17:23 437.505/2401.250
SPROUT 06 May 00:11:56 00:16:13 78° 257° (WSW) 00:20:33 437.525
POLYITAN 1 06 May 00:12:25 00:16:47 77° 284° (WNW) 00:21:05 437.675
UNISAT 6 06 May 00:18:44 00:23:03 37° 292° (WNW) 00:27:14 437.425
QB50P1 06 May 00:24:17 00:28:32 59° 287° (WNW) 00:32:45 145.935-145.965
GONETS M04 06 May 00:30:59 00:36:19 18° 51° (NE) 00:42:01
AIST 2 06 May 00:32:09 00:35:40 26° 116° (ESE) 00:39:17 435.215
TISAT 1 06 May 00:33:13 00:37:21 58° 259° (W) 00:41:33 437.305
BUGSAT 1 06 May 00:36:03 00:40:13 62° 287° (WNW) 00:44:24 437.445
AIST 1 06 May 00:36:35 00:40:12 26° 290° (WNW) 00:43:46
QB50P2 06 May 00:55:01 00:58:48 29° 293° (WNW) 01:02:31 145.880/145.840
ANTELSAT 06 May 01:02:15 01:05:15 17° 300° (WNW) 01:08:05 437.575/2403.000
NANOSAT C BR1 06 May 01:05:03 01:08:36 25° 294° (WNW) 01:12:04 145.865
Cosmos 2504 06 May 01:05:37 01:12:13 31° 276° (W) 01:18:20 435.465 / 435.565
POPSAT HIP 1 06 May 01:13:52 01:17:10 21° 296° (WNW) 01:20:21 437.405
ITUPSAT 1 06 May 01:15:35 01:20:19 65° 72° (ENE) 01:25:04 437.325
BEESAT 3 06 May 01:19:36 01:23:28 38° 316° (NW) 01:27:21 437.485
CUSAT 1 06 May 01:29:31 01:36:36 33° 62° (ENE) 01:43:54 437.405
BEESAT 2 06 May 01:36:14 01:40:02 33° 318° (NW) 01:43:50 435.950
DUCHIFAT 1 06 May 01:36:20 01:38:37 14° 300° (WNW) 01:40:45 145.980
BEESAT 06 May 01:38:53 01:43:40 77° 258° (WSW) 01:48:27 436.000
DANDE 06 May 01:42:06 01:49:13 33° 63° (ENE) 01:56:48 436.750
KKS-1 06 May 01:42:31 01:46:09 25° 65° (ENE) 01:49:52 437.445
SWISSCUBE 06 May 01:43:27 01:48:11 64° 258° (WSW) 01:52:56 437.505
POLYITAN 1 06 May 01:51:11 01:51:58 10° 303° (WNW) 01:52:34 437.675
Oscar 19 06 May 02:05:47 02:10:53 54° 99° (E) 02:15:59 437.125/150
STARS 06 May 02:08:51 02:12:39 29° 66° (ENE) 02:16:32 437.465
AIST 2 06 May 02:09:58 02:14:05 44° 314° (NW) 02:18:13 435.215
GONETS M04 06 May 02:26:27 02:35:19 69° 76° (ENE) 02:44:05
ITUPSAT 1 06 May 02:55:37 02:58:44 17° 271° (W) 03:01:40 437.325
Cosmos 2499 06 May 02:57:23 03:02:42 21° 57° (ENE) 03:08:01 435.465 / 435.565
BEESAT 3 06 May 03:01:32 03:02:38 11° 338° (NNW) 03:03:38 437.485
Gurwin Techsat 1B 06 May 03:03:57 03:09:09 52° 99° (E) 03:14:20 435.225
ITAMSAT 1 06 May 03:06:04 03:11:12 59° 101° (ESE) 03:16:20 435.822/435.867
CUSAT 1 06 May 03:11:51 03:20:03 72° 263° (W) 03:28:07 437.405
KKS-1 06 May 03:18:28 03:22:38 39° 263° (W) 03:26:51 437.445
BEESAT 2 06 May 03:19:02 03:19:23 10° 340° (NNW) 03:19:40 435.950
DANDE 06 May 03:24:57 03:33:11 73° 262° (W) 03:41:39 436.750
JAS-2 06 May 03:27:44 03:30:57 16° 83° (E) 03:34:15 435.910
MOZHAYETS 4 06 May 03:32:34 03:36:23 26° 66° (ENE) 03:40:16
STARS 06 May 03:45:04 03:49:03 32° 264° (W) 03:53:03 437.465
Oscar 19 06 May 03:45:46 03:49:57 24° 298° (WNW) 03:54:01 437.125/150
AIST 2 06 May 03:51:54 03:53:46 12° 336° (NNW) 03:55:33 435.215
HORYU 2 06 May 03:53:58 03:57:56 30° 95° (E) 04:01:55 437.375
O/OREOS (USA 219) 06 May 04:10:43 04:12:58 14° 43° (NE) 04:15:21 437.305
GONETS M04 06 May 04:24:08 04:31:34 30° 278° (W) 04:38:44
M-CUBED/EXP-1 PRIME 06 May 04:26:09 04:28:01 13° 52° (NE) 04:30:01 437.505
AO-7 06 May 04:27:58 04:35:55 47° 99° (E) 04:43:54 29.400- 29.500
Gurwin Techsat 1B 06 May 04:44:29 04:48:52 26° 298° (WNW) 04:53:08 435.225
ITAMSAT 1 06 May 04:46:19 04:50:21 23° 299° (WNW) 04:54:16 435.822/435.867
Cosmos 2499 06 May 04:49:34 04:57:09 87° 262° (W) 05:04:17 435.465 / 435.565
AUBIESAT-1 06 May 04:55:43 04:58:59 19° 57° (ENE) 05:02:15 437.475
CUSAT 1 06 May 04:56:26 05:01:40 18° 281° (W) 05:06:27 437.405
MOZHAYETS 4 06 May 05:09:07 05:13:29 39° 264° (W) 05:17:49
DANDE 06 May 05:10:00 05:15:26 19° 280° (W) 05:20:33 436.750
JAS-2 06 May 05:11:10 05:17:08 80° 287° (WNW) 05:22:29 435.910
HORYU 2 06 May 05:30:35 05:34:35 32° 294° (WNW) 05:38:31 437.375
STRAND 1 06 May 05:36:50 05:40:47 24° 62° (ENE) 05:44:51 437.568
CUBESAT XI-V 06 May 05:41:11 05:45:31 42° 70° (ENE) 05:49:53 437.345
CUTE-I 06 May 05:44:15 05:46:33 13° 85° (E) 05:49:09 437.470
O/OREOS (USA 219) 06 May 05:48:42 05:53:13 83° 66° (ENE) 05:57:41 437.305
PCSat 06 May 05:53:07 05:58:17 48° 116° (ESE) 06:03:30 145.827
Cubesat XI-IV 06 May 05:56:41 06:00:03 17° 88° (E) 06:03:39 437.490
M-CUBED/EXP-1 PRIME 06 May 05:57:26 06:02:13 73° 69° (ENE) 06:06:49 437.505
PRISM 06 May 06:02:06 06:05:56 39° 69° (ENE) 06:09:49 437.425
Cosmos 2491 06 May 06:11:37 06:14:14 12° 43° (NE) 06:17:23 435.465 / 435.565
BEESAT 3 06 May 06:20:39 06:22:28 13° 26° (NNE) 06:24:21 437.485
AO-7 06 May 06:20:54 06:28:49 49° 300° (WNW) 06:36:39 29.400- 29.500
AUBIESAT-1 06 May 06:28:40 06:33:24 66° 254° (WSW) 06:37:56 437.475
BEESAT 2 06 May 06:37:13 06:39:25 14° 27° (NNE) 06:41:42 435.950
Cosmos 2499 06 May 06:44:35 06:49:11 17° 283° (WNW) 06:53:17 435.465 / 435.565
JAS-2 06 May 06:57:57 07:01:15 15° 308° (NW) 07:04:12 435.910
AIST 2 06 May 07:12:55 07:14:49 13° 24° (NNE) 07:16:48 435.215
STRAND 1 06 May 07:14:42 07:19:42 54° 260° (W) 07:24:43 437.568
CUBESAT XI-V 06 May 07:19:26 07:23:10 23° 268° (W) 07:26:49 437.345
CUTE-I 06 May 07:22:09 07:27:31 88° 101° (E) 07:32:53 437.470
O/OREOS (USA 219) 06 May 07:30:20 07:32:02 12° 261° (W) 07:33:29 437.305
M-CUBED/EXP-1 PRIME 06 May 07:34:31 07:37:30 16° 266° (W) 07:40:16 437.505
Cubesat XI-IV 06 May 07:35:29 07:40:48 73° 288° (WNW) 07:46:08 437.490
PCSat 06 May 07:36:55 07:41:53 35° 316° (NW) 07:46:51 145.827
PRISM 06 May 07:38:24 07:41:35 21° 267° (W) 07:44:42 437.425
BEESAT 3 06 May 07:57:25 08:01:27 50° 47° (NE) 08:05:26 437.485
Cosmos 2491 06 May 08:05:40 08:14:08 48° 70° (ENE) 08:22:37 435.465 / 435.565
BRITE-PL 06 May 08:06:50 08:11:26 28° 92° (E) 08:16:15 437.365/2234.400
DOVE 4 06 May 08:12:53 08:15:36 14° 85° (E) 08:18:34 437.250
BEESAT 2 06 May 08:14:17 08:18:24 60° 49° (NE) 08:22:27 435.950
AO-7 06 May 08:15:30 08:19:46 15° 323° (NW) 08:23:44 29.400- 29.500
ISS 06 May 08:19:15 08:22:18 40° 146° (SE) 08:25:23 145.825
GOMX 1 06 May 08:31:59 08:36:42 31° 93° (E) 08:41:34 467.674
